EW0259 Weather Reports


time (UTC)temp
F
wind
direction
speed
knots
gust
knots
rain 1hr
in
rain 24hr
in
rain mn
in
humidity
%
barometer
mb
20260506171311 53 298 0.9 2.6 0.00 0.00 0.00 91 1021.3
20260506170728 53 283 0.0 2.6 0.00 0.00 0.00 90 1021.3
20260506170256 53 248 0.9 2.6 0.00 0.00 0.00 90 1021.2
20260506170224 53 248 0.9 2.6 0.00 0.00 0.00 90 1021.2
20260506165730 53 254 0.9 1.7 0.00 0.00 0.00 90 1021.2
20260506165222 53 146 0.0 1.7 0.00 0.00 0.00 91 1021.3
20260506164810 53 355 0.0 1.7 0.00 0.00 0.00 92 1021.2
20260506164306 53 198 0.0 1.7 0.00 0.00 0.00 92 1020.9
20260506163723 53 125 0.0 1.7 0.00 0.00 0.00 93 1020.8
20260506163231 53 97 0.9 1.7 0.00 0.00 0.00 93 1020.6
20260506162738 53 119 0.0 1.7 0.00 0.00 0.00 93 1020.7
20260506162226 53 101 0.0 1.7 0.00 0.00 0.00 93 1020.6
20260506161734 53 97 0.0 1.7 0.00 0.00 0.00 94 1020.6
20260506161221 52 82 0.0 0.9 0.00 0.00 0.00 93 1020.6
20260506160729 52 85 0.0 1.7 0.00 0.00 0.00 93 1020.7
20260506160256 52 107 0.9 1.7 0.00 0.00 0.00 92 1020.8
20260506155812 52 314 0.0 1.7 0.00 0.00 0.00 92 1020.9
20260506155228 52 251 0.0 1.7 0.00 0.00 0.00 92 1020.9
20260506154736 52 258 0.0 0.0 0.00 0.00 0.00 92 1020.9
20260506154227 52 244 0.0 0.0 0.00 0.00 0.00 93 1021.0
20260506153735 52 240 0.0 0.0 0.00 0.00 0.00 93 1020.9
20260506153223 52 240 0.0 0.9 0.00 0.00 0.00 92 1020.7
20260506152810 52 240 0.0 1.7 0.00 0.00 0.00 92 1020.8
20260506152306 52 105 0.0 1.7 0.00 0.00 0.00 92 1020.6
20260506151722 52 113 0.9 1.7 0.00 0.00 0.00 92 1020.5
20260506151230 52 225 0.0 1.7 0.00 0.00 0.00 92 1020.6
20260506150738 53 286 0.0 1.7 0.00 0.00 0.00 91 1020.7
20260506150226 53 216 0.0 1.7 0.00 0.00 0.00 91 1020.7
20260506145733 53 210 0.0 1.7 0.00 0.00 0.00 91 1020.8
20260506145301 53 283 0.9 1.7 0.00 0.00 0.00 91 1020.8
20260506144737 53 204 0.0 2.6 0.00 0.00 0.00 91 1020.9
20260506144228 53 58 0.0 2.6 0.00 0.00 0.00 92 1020.7
20260506143756 53 121 0.0 1.7 0.00 0.00 0.00 92 1020.6
20260506143232 53 118 0.0 1.7 0.00 0.00 0.00 92 1020.5
20260506142739 53 89 0.9 2.6 0.00 0.00 0.00 92 1020.3
20260506142226 53 118 0.9 2.6 0.00 0.00 0.00 92 1020.3
20260506141753 53 121 0.0 1.7 0.00 0.00 0.00 92 1020.4
20260506141722 53 121 0.0 1.7 0.00 0.00 0.00 92 1020.4
20260506141230 53 121 0.0 1.7 0.00 0.00 0.00 92 1020.4
20260506140758 53 161 0.0 1.7 0.00 0.00 0.00 92 1020.6
20260506140234 53 109 0.0 1.7 0.00 0.00 0.00 92 1020.7
20260506135740 53 94 0.9 1.7 0.00 0.00 0.00 92 1020.4
20260506135228 53 66 0.0 1.7 0.00 0.00 0.00 92 1020.4
20260506134736 53 138 0.0 1.7 0.00 0.00 0.00 92 1020.5
20260506134224 53 144 0.9 1.7 0.00 0.00 0.00 92 1020.5
20260506133736 53 92 0.0 1.7 0.00 0.00 0.00 92 1020.3
20260506133224 53 273 0.0 1.7 0.00 0.00 0.00 92 1020.2
20260506132731 53 252 0.0 1.7 0.00 0.00 0.00 91 1020.4
20260506132238 53 94 0.0 1.7 0.00 0.00 0.00 91 1020.3
20260506131806 53 94 0.0 1.7 0.00 0.00 0.00 91 1019.9
20260506131301 53 116 0.9 1.7 0.00 0.00 0.00 92 1020.0
20260506130738 53 94 0.0 1.7 0.00 0.00 0.00 91 1020.0
20260506130305 53 181 0.0 0.0 0.00 0.00 0.00 91 1020.1
20260506125801 53 191 0.0 0.0 0.00 0.00 0.00 91 1020.1
20260506125257 53 191 0.0 0.0 0.00 0.00 0.00 91 1019.9
20260506125225 53 191 0.0 0.0 0.00 0.00 0.00 91 1019.9
20260506124733 53 155 0.0 0.0 0.00 0.00 0.00 91 1019.9
20260506124301 53 155 0.0 0.0 0.00 0.00 0.00 91 1019.9
20260506123737 53 153 0.0 0.0 0.00 0.00 0.00 90 1019.9
20260506123225 53 159 0.0 0.0 0.00 0.00 0.00 90 1019.9
20260506122812 53 159 0.0 0.0 0.00 0.00 0.00 90 1019.7
20260506122228 53 159 0.0 0.0 0.00 0.00 0.00 90 1019.7
20260506121736 53 179 0.0 0.0 0.00 0.00 0.00 90 1019.7
20260506121228 53 179 0.0 0.0 0.00 0.00 0.00 90 1019.7
20260506120736 53 179 0.0 0.0 0.00 0.00 0.00 90 1019.7
20260506120223 53 179 0.0 0.0 0.00 0.00 0.00 89 1019.6
20260506115810 53 301 0.0 1.7 0.00 0.00 0.00 89 1019.5
20260506115738 53 301 0.0 1.7 0.00 0.00 0.00 89 1019.5
20260506115226 53 169 0.0 1.7 0.00 0.00 0.00 89 1019.5
20260506114734 53 71 0.0 1.7 0.00 0.00 0.00 88 1019.5
20260506114222 53 108 0.0 1.7 0.00 0.00 0.00 88 1019.6
20260506113810 53 141 0.0 1.7 0.00 0.00 0.00 87 1019.5
20260506113738 53 141 0.0 1.7 0.00 0.00 0.00 87 1019.5
20260506113306 53 140 0.0 1.7 0.00 0.00 0.00 87 1019.6
20260506113234 53 140 0.0 1.7 0.00 0.00 0.00 87 1019.6
20260506112721 53 140 0.0 0.0 0.00 0.00 0.00 86 1019.6
20260506112229 53 140 0.0 0.0 0.00 0.00 0.00 86 1019.6
20260506111737 53 140 0.0 0.0 0.00 0.00 0.00 86 1019.6
20260506111225 53 140 0.0 0.9 0.00 0.00 0.00 86 1019.6
20260506110737 53 157 0.0 0.0 0.00 0.00 0.00 86 1019.5
20260506110225 53 148 0.0 0.0 0.00 0.00 0.00 86 1019.4
20260506105732 53 177 0.0 0.0 0.00 0.00 0.00 86 1019.4
20260506105240 53 159 0.0 0.0 0.00 0.00 0.00 86 1019.4
20260506104728 53 159 0.0 0.0 0.00 0.00 0.00 86 1019.3
20260506104236 53 157 0.0 0.0 0.00 0.00 0.00 86 1019.3
20260506103724 53 156 0.0 0.0 0.00 0.00 0.00 86 1019.3
20260506103311 54 271 0.0 0.0 0.00 0.00 0.00 86 1019.3
20260506102736 54 275 0.0 0.0 0.00 0.00 0.00 85 1019.3
20260506102224 54 275 0.0 0.0 0.00 0.00 0.00 85 1019.2
20260506101732 54 275 0.0 1.7 0.00 0.00 0.00 85 1019.1
20260506101224 54 275 0.0 0.9 0.00 0.00 0.00 85 1019.1
20260506100732 54 123 0.0 1.7 0.00 0.00 0.00 85 1019.0
20260506100240 54 123 0.0 1.7 0.00 0.00 0.00 85 1018.9
20260506095727 54 322 0.0 1.7 0.00 0.00 0.00 85 1018.8
20260506095235 54 45 0.9 1.7 0.00 0.00 0.00 85 1018.8
20260506094803 54 290 0.0 2.6 0.00 0.00 0.00 84 1018.8
20260506094239 54 260 0.0 2.6 0.00 0.00 0.00 84 1018.8
20260506093727 54 114 0.9 2.6 0.00 0.00 0.00 85 1018.7
20260506093234 54 283 0.0 1.7 0.00 0.00 0.00 85 1018.7
20260506092721 54 283 0.9 1.7 0.00 0.00 0.00 85 1018.7
20260506092309 54 9 0.0 1.7 0.00 0.00 0.00 85 1018.7
20260506091730 54 312 0.0 1.7 0.00 0.00 0.00 86 1018.6
20260506091238 54 274 0.0 1.7 0.00 0.00 0.00 86 1018.6
20260506090806 54 230 0.0 0.9 0.00 0.00 0.00 86 1018.5
20260506090241 54 273 0.0 0.9 0.00 0.00 0.00 86 1018.5
20260506085728 54 194 0.0 0.9 0.00 0.00 0.00 86 1018.4
20260506085253 54 217 0.9 0.9 0.00 0.00 0.00 87 1018.5
20260506084810 54 130 0.0 0.0 0.00 0.00 0.00 87 1018.4
20260506084738 54 130 0.0 0.0 0.00 0.00 0.00 87 1018.4
20260506084226 54 130 0.0 0.0 0.00 0.00 0.00 87 1018.3
20260506083734 54 130 0.0 0.0 0.00 0.00 0.00 87 1018.3
20260506083222 54 130 0.0 0.0 0.00 0.00 0.00 87 1018.2
20260506082729 54 130 0.0 0.9 0.00 0.00 0.00 86 1018.3
20260506082237 54 130 0.0 1.7 0.00 0.00 0.00 87 1018.4
20260506081805 54 130 0.0 1.7 0.00 0.00 0.00 87 1018.4
20260506081301 54 304 0.0 1.7 0.00 0.00 0.00 87 1018.4
20260506080737 54 304 0.0 1.7 0.00 0.00 0.00 87 1018.4
20260506080229 54 260 0.0 1.7 0.00 0.00 0.00 88 1018.3
20260506073240 53 121 0.0 1.7 0.00 0.00 0.00 90 1018.1
20260506072807 53 121 0.0 1.7 0.00 0.00 0.00 90 1018.1
20260506072735 53 121 0.0 1.7 0.00 0.00 0.00 90 1018.1
20260506072305 53 111 0.0 0.0 0.00 0.00 0.00 90 1018.1
20260506071739 52 111 0.0 0.0 0.00 0.00 0.00 90 1018.2
20260506071227 52 111 0.0 0.0 0.00 0.00 0.00 90 1018.1
20260506070734 52 111 0.0 0.0 0.00 0.00 0.00 90 1018.1
20260506070222 52 113 0.0 0.0 0.00 0.00 0.00 90 1018.1
20260506062301 52 196 0.0 0.0 0.00 0.00 0.00 90 1017.6
20260506061737 53 196 0.0 0.0 0.00 0.00 0.00 90 1017.5
20260506061225 53 196 0.0 0.0 0.00 0.00 0.00 90 1017.5
20260506060731 53 196 0.0 0.0 0.00 0.00 0.00 90 1017.4
20260506060239 53 196 0.0 0.0 0.00 0.00 0.00 90 1017.5
20260506051257 54 248 0.0 0.0 0.00 0.00 0.00 88 1017.1
20260506050753 54 248 0.0 0.0 0.00 0.00 0.00 87 1017.1
20260506050310 54 248 0.0 0.0 0.00 0.00 0.00 87 1017.1
20260506044729 55 248 0.0 0.0 0.00 0.00 0.00 86 1017.0
20260506044237 55 248 0.0 0.0 0.00 0.00 0.00 86 1017.0
20260506043804 55 248 0.0 0.0 0.00 0.00 0.00 85 1017.1
20260506043241 56 248 0.0 0.0 0.00 0.00 0.00 85 1017.1
20260506042728 56 248 0.0 0.0 0.00 0.00 0.00 84 1017.0
20260506042236 56 248 0.0 0.0 0.00 0.00 0.00 84 1017.1
20260506041728 56 248 0.0 0.0 0.00 0.00 0.00 83 1017.0
20260506041256 57 248 0.0 0.0 0.00 0.00 0.00 83 1017.0
20260506040733 57 248 0.0 0.0 0.00 0.00 0.00 82 1016.8
20260506040241 57 248 0.0 0.0 0.00 0.00 0.00 82 1016.8
20260506035728 57 248 0.0 0.0 0.00 0.00 0.00 82 1016.8
20260506035236 58 248 0.0 0.0 0.00 0.00 0.00 81 1016.7
20260506034724 58 248 0.0 0.0 0.00 0.00 0.00 81 1016.6
20260506034232 58 248 0.0 0.0 0.00 0.00 0.00 80 1016.5
20260506033740 58 248 0.0 0.0 0.00 0.00 0.00 80 1016.4
20260506033228 59 248 0.0 0.0 0.00 0.00 0.00 79 1016.4
20260506032735 59 248 0.0 0.0 0.00 0.00 0.00 79 1016.4
20260506032226 59 248 0.0 0.0 0.00 0.00 0.00 77 1016.4
20260506031754 60 248 0.0 0.0 0.00 0.00 0.00 77 1016.5
20260506031230 60 248 0.0 0.0 0.00 0.00 0.00 76 1016.4
20260506030738 60 248 0.0 1.7 0.00 0.00 0.00 76 1016.4
20260506030226 60 248 0.0 1.7 0.00 0.00 0.00 75 1016.3
20260506025752 61 248 0.0 0.9 0.00 0.00 0.00 74 1016.2
20260506025229 61 248 0.0 1.7 0.00 0.00 0.00 74 1016.3
20260506024737 61 186 0.0 1.7 0.00 0.00 0.00 72 1016.3
20260506024225 62 186 0.0 1.7 0.00 0.00 0.00 72 1016.1
20260506023753 62 227 0.0 1.7 0.00 0.00 0.00 71 1016.3
20260506023309 63 227 0.0 1.7 0.00 0.00 0.00 70 1016.4
20260506023237 63 227 0.0 1.7 0.00 0.00 0.00 70 1016.4
20260506022724 63 227 0.0 1.7 0.00 0.00 0.00 69 1016.4
20260506022232 64 227 0.0 1.7 0.00 0.00 0.00 68 1016.5
20260506021724 64 303 0.0 1.7 0.00 0.00 0.00 67 1016.4
20260506021308 64 160 0.0 1.7 0.00 0.00 0.00 68 1016.4
20260506021236 64 160 0.0 1.7 0.00 0.00 0.00 68 1016.4
20260506020728 65 209 0.0 1.7 0.00 0.00 0.00 67 1016.4
20260506020236 65 295 0.0 3.5 0.00 0.00 0.00 67 1016.4
20260506015723 65 295 0.0 3.5 0.00 0.00 0.00 66 1016.3
20260506015310 65 355 0.0 0.0 0.00 0.00 0.00 65 1016.2
20260506014727 65 252 0.0 1.7 0.00 0.00 0.00 66 1016.2
20260506014235 65 239 0.0 3.5 0.00 0.00 0.00 66 1016.2
20260506013723 65 327 0.9 3.5 0.00 0.00 0.00 65 1016.3
20260506013231 65 320 0.9 5.2 0.00 0.00 0.00 64 1016.3
20260506012738 66 313 0.9 2.6 0.00 0.00 0.00 64 1016.3
20260506012226 66 218 0.0 2.6 0.00 0.00 0.00 63 1016.3
20260506011738 66 217 0.9 2.6 0.00 0.00 0.00 63 1016.3
20260506011226 66 208 0.9 2.6 0.00 0.00 0.00 63 1016.3
20260506010734 67 289 0.0 1.7 0.00 0.00 0.00 63 1016.4
20260506010222 66 240 0.9 1.7 0.00 0.00 0.00 63 1016.4
20260506005729 66 107 0.0 1.7 0.00 0.00 0.00 64 1016.4
20260506005256 65 355 0.9 3.5 0.00 0.00 0.00 64 1016.4
20260506005225 65 355 0.9 3.5 0.00 0.00 0.00 64 1016.4
20260506004733 66 187 0.9 1.7 0.00 0.00 0.00 65 1016.4
20260506004301 66 163 0.9 2.6 0.00 0.00 0.00 65 1016.4
20260506003738 65 284 0.9 2.6 0.00 0.00 0.00 65 1016.5
20260506003226 65 207 0.9 2.6 0.00 0.00 0.00 64 1016.6
20260506002733 65 273 0.9 2.6 0.00 0.00 0.00 65 1016.6
20260506002301 64 256 0.0 5.2 0.00 0.00 0.00 66 1016.5
20260506002229 64 256 0.0 5.2 0.00 0.00 0.00 66 1016.5
20260506001721 64 288 1.7 5.2 0.00 0.00 0.00 67 1016.5
20260506001229 64 278 1.7 3.5 0.00 0.00 0.00 68 1016.5
20260506000737 64 217 0.9 6.1 0.00 0.00 0.00 67 1016.5
20260506000305 64 258 3.5 6.1 0.00 0.00 0.00 66 1016.7
20260505235740 65 284 0.9 3.5 0.00 0.00 0.00 66 1016.8
20260505235228 65 264 1.7 2.6 0.00 0.00 0.00 65 1016.8
20260505234755 64 85 0.9 2.6 0.00 0.00 0.00 67 1016.8
20260505234231 64 208 0.9 5.2 0.00 0.00 0.00 68 1016.9
20260505233739 63 46 1.7 5.2 0.00 0.00 0.00 68 1017.2
20260505233227 63 141 1.7 3.5 0.00 0.00 0.00 69 1017.0
20260505232754 63 331 0.9 2.6 0.00 0.00 0.00 69 1017.0
20260505232230 63 266 0.9 2.6 0.00 0.00 0.00 70 1017.0
20260505231758 62 301 0.9 1.7 0.00 0.00 0.00 70 1016.9
20260505231255 62 326 0.0 2.6 0.00 0.00 0.00 70 1017.0
20260505230809 62 295 1.7 2.6 0.00 0.00 0.00 70 1017.0
20260505230226 62 325 0.9 4.3 0.00 0.00 0.00 70 1017.1
20260505225733 62 273 1.7 5.2 0.00 0.00 0.00 71 1017.1
20260505225225 61 107 1.7 3.5 0.00 0.00 0.00 72 1017.1
20260505224733 61 258 0.9 3.5 0.00 0.00 0.00 72 1017.1
20260505224221 61 320 2.6 3.5 0.00 0.00 0.00 72 1017.2
20260505223729 61 269 0.9 3.5 0.00 0.00 0.00 72 1017.2
20260505223237 61 296 0.9 3.5 0.00 0.00 0.00 71 1017.3
20260505222804 61 156 1.7 4.3 0.00 0.00 0.00 73 1017.4
20260505222221 61 269 1.7 3.5 0.00 0.00 0.00 72 1017.4
20260505221729 61 185 0.9 2.6 0.00 0.00 0.00 72 1017.5
20260505221257 61 306 0.9 1.7 0.00 0.00 0.00 73 1017.6
20260505220734 60 348 0.9 2.6 0.00 0.00 0.00 74 1017.5
20260505220222 60 328 1.7 2.6 0.00 0.00 0.00 74 1017.5
20260505215733 60 12 1.7 3.5 0.00 0.00 0.00 74 1017.5
20260505215221 60 257 0.0 4.3 0.00 0.00 0.00 74 1017.5
20260505214729 60 288 3.5 4.3 0.00 0.00 0.00 74 1017.6
20260505214226 60 123 0.0 3.5 0.00 0.00 0.00 74 1017.6
20260505213734 60 285 2.6 3.5 0.00 0.00 0.00 74 1017.5
20260505213222 60 19 0.9 3.5 0.00 0.00 0.00 74 1017.4
20260505212729 60 282 1.7 3.5 0.00 0.00 0.00 74 1017.4
20260505212237 59 283 0.9 3.5 0.00 0.00 0.00 75 1017.5
20260505211725 59 308 0.9 3.5 0.00 0.00 0.00 75 1017.6
20260505211253 59 42 1.7 3.5 0.00 0.00 0.00 75 1017.5
20260505211221 59 42 1.7 3.5 0.00 0.00 0.00 75 1017.5
20260505210809 59 263 0.0 2.6 0.00 0.00 0.00 75 1017.5
20260505210226 59 323 0.0 3.5 0.00 0.00 0.00 76 1017.7
20260505205737 59 256 0.0 3.5 0.00 0.00 0.00 76 1017.7
20260505205305 59 279 0.9 2.6 0.00 0.00 0.00 76 1017.8
20260505204801 59 297 0.9 2.6 0.00 0.00 0.00 75 1017.9
20260505204238 59 154 0.9 2.6 0.00 0.00 0.00 77 1017.8
20260505203806 58 348 0.9 2.6 0.00 0.00 0.00 77 1017.8
20260505203222 58 323 0.9 5.2 0.00 0.00 0.00 77 1017.8
20260505202808 58 277 3.5 5.2 0.00 0.00 0.00 76 1017.9
20260505202225 58 151 0.9 3.5 0.00 0.00 0.00 77 1017.7
20260505201733 58 258 0.9 3.5 0.00 0.00 0.00 77 1017.9
20260505201221 58 78 0.0 3.5 0.00 0.00 0.00 78 1017.8
20260505200729 58 260 0.9 3.5 0.00 0.00 0.00 78 1017.8
20260505200237 58 96 0.0 3.5 0.00 0.00 0.00 78 1017.9
20260505195724 57 267 1.7 3.5 0.00 0.00 0.00 78 1017.9
20260505195232 57 293 0.9 3.5 0.00 0.00 0.00 78 1017.9
20260505194723 57 309 1.7 2.6 0.00 0.00 0.00 78 1017.7
20260505194231 58 325 0.9 3.5 0.00 0.00 0.00 78 1017.8
20260505193739 57 278 0.9 4.3 0.00 0.00 0.00 78 1017.7
20260505193227 58 265 0.9 3.5 0.00 0.00 0.00 78 1017.7
20260505192734 57 270 0.9 2.6 0.00 0.00 0.00 78 1017.8
20260505192221 57 315 0.9 2.6 0.00 0.00 0.00 78 1017.7
20260505191728 57 333 0.0 2.6 0.00 0.00 0.00 78 1017.7
20260505191236 57 254 0.9 2.6 0.00 0.00 0.00 78 1017.7
20260505190804 57 263 0.9 2.6 0.00 0.00 0.00 78 1017.8
20260505190240 57 265 0.9 2.6 0.00 0.00 0.00 78 1017.7
20260505185807 58 284 0.0 1.7 0.00 0.00 0.00 78 1017.7
20260505185305 58 320 0.9 2.6 0.00 0.00 0.00 78 1017.7
20260505184724 58 145 0.9 2.6 0.00 0.00 0.00 78 1017.6
20260505184232 58 140 0.9 3.5 0.00 0.00 0.00 78 1017.7
20260505183740 58 170 0.9 3.5 0.00 0.00 0.00 78 1017.6
20260505183227 58 260 0.9 3.5 0.00 0.00 0.00 78 1017.5
20260505182754 58 132 0.0 2.6 0.00 0.00 0.00 78 1017.6
20260505182230 57 114 0.9 1.7 0.00 0.00 0.00 78 1017.5
20260505181738 57 326 0.9 1.7 0.00 0.00 0.00 78 1017.6
20260505181225 57 240 0.0 3.5 0.00 0.00 0.00 79 1017.6
20260505180733 57 141 0.0 2.6 0.00 0.00 0.00 79 1017.5
20260505180240 57 217 0.9 2.6 0.00 0.00 0.00 79 1017.5
20260505175727 57 333 0.0 1.7 0.00 0.00 0.00 79 1017.4
20260505175255 57 63 0.9 1.7 0.00 0.00 0.00 79 1017.5
20260505174735 57 114 0.0 2.6 0.00 0.00 0.00 79 1017.4
20260505174223 57 137 0.0 2.6 0.00 0.00 0.00 79 1017.4
20260505173730 57 133 0.9 2.6 0.00 0.00 0.00 79 1017.4
20260505173258 57 274 0.9 3.5 0.00 0.00 0.00 80 1017.4
20260505172753 57 11 0.0 1.7 0.00 0.00 0.00 80 1017.3
20260505172230 57 323 0.9 1.7 0.00 0.00 0.00 80 1017.3
20260505171738 56 155 0.0 1.7 0.00 0.00 0.00 80 1017.3